TIME,DELAY(SENSOR),PRES,T(CTD),SAL,OXYGEN,RAWTEMP,T(OPTODE),TCPHASE,TURBIDITY,TURBIDITY_GAIN,FLUOR,BETA,CDOM,ED411.5,ED443.8,ED489.6,PAR,COMP,TILT,TILTY(TILT),CHECK
1341875203,6470,222.1499938964843800,4.9745001792907715,34.9734992980957000,362.7376098632812500,652.9614257812500000,4.9537868499755860,32.4068984985351560,16,3,50,116,62,2147637887,2147392763,2147283692,2148322897,2847,2,-4,34644
1341875264,6468,218.4199981689453000,4.9763998985290530,34.9730987548828100,362.8435974121094000,652.9080810546875000,4.9555230140686035,32.4028511047363300,16,3,50,136,61,2147634861,2147391354,2147282870,2148322906,2493,2,-4,17888
1341875325,6470,214.6799926757812500,4.9773998260498050,34.9732017517089840,363.0629882812500000,652.8596801757812000,4.9570960998535160,32.3948707580566400,16,3,49,111,62,2147636397,2147393092,2147282431,2148324123,2095,2,-4,35176
1341875386,6468,210.9600067138672000,4.9774999618530270,34.9733009338378900,363.1543884277344000,652.8513183593750000,4.9573712348937990,32.3918418884277340,16,3,48,107,62,2147638834,2147393965,2147283249,2148321435,1804,2,-4,55442
1341875447,6467,207.2899932861328000,4.9790000915527340,34.9733009338378900,363.0665893554687500,652.8040771484375000,4.9589037895202640,32.3936309814453100,16,3,48,116,62,2147635075,2147395249,2147282595,2148321324,1516,2,-4,2113
1341875512,6467,203.3800048828125000,4.9807000160217285,34.9730987548828100,363.1296997070312500,652.7548828125000000,4.9605050086975100,32.3909683227539060,16,3,49,126,62,2147634705,2147394746,2147282806,2148318879,1228,2,-4,15436
1341875573,6468,199.7299957275390600,4.9847998619079590,34.9723014831543000,362.9258117675781000,652.6544799804688000,4.9637699127197270,32.3955917358398440,16,3,48,119,62,2147638056,2147390838,2147283990,2148321535,948,2,-4,22578
1341875634,6468,196.1399993896484400,4.9868998527526855,34.9729995727539060,362.7471008300781000,652.5720214843750000,4.9664568901062010,32.3997917175293000,16,3,50,115,62,2147635487,2147394834,2147283295,2148321082,580,2,-4,46262
1341875695,6468,192.6199951171875000,4.9907999038696290,34.9729003906250000,362.6549072265625000,652.4321899414062000,4.9710030555725100,32.4002609252929700,16,3,49,108,62,2147636781,2147395423,2147282468,2148320461,126,2,-5,38429
1341875756,6467,189.1100006103515600,4.9959001541137695,34.9734992980957000,362.4584960937500000,652.3054199218750000,4.9751257896423340,32.4043693542480500,12,3,48,111,62,2147633046,2147391706,2147281695,2148322368,3416,2,-4,27187
1341875820,6470,185.5599975585937500,5.0037999153137210,34.9735984802246100,362.0567016601562500,652.0388793945312000,4.9837970733642580,32.4123306274414060,16,3,48,118,62,2147636689,2147396571,2147282659,2148321467,2912,2,-4,50790
1341875881,6467,182.1999969482422000,5.0125999450683590,34.9744987487793000,362.1863098144531000,651.8062744140625000,4.9913601875305180,32.4040107727050800,16,3,50,121,62,2147636013,2147392868,2147281119,2148320881,2682,2,-6,54794
1341875944,6467,178.7799987792968800,5.0177998542785645,34.9744987487793000,361.9201049804687500,651.6232910156250000,4.9973130226135250,32.4090309143066400,42,3,49,117,62,2147639094,2147389928,2147283652,2148320635,2432,2,-4,52954
1341876005,6467,175.5099945068359400,5.0204000473022460,34.9751014709472660,361.8153991699219000,651.5291137695312000,5.0003762245178220,32.4109611511230500,16,3,49,115,62,2147635190,2147390582,2147281937,2148321595,2165,2,-4,6065
1341876068,6468,172.1799926757812500,5.0331997871398930,34.9756011962890600,361.4995117187500000,651.1785888671875000,5.0117721557617190,32.4147605895996100,16,3,50,114,62,2147636424,2147396173,2147281823,2148321439,1967,2,-4,10449
1341876129,6468,169.0099945068359400,5.0439000129699710,34.9771003723144500,361.4818115234375000,650.8312988281250000,5.0230641365051270,32.4090995788574200,16,3,49,112,62,2147635368,2147393503,2147285608,2148320611,1671,2,-4,39552
1341876192,6469,165.7400054931640600,5.0462999343872070,34.9775009155273440,361.4313964843750000,650.6724853515625000,5.0282268524169920,32.4076309204101560,16,3,50,115,62,2147635318,2147391208,2147283898,2148322751,1456,2,-4,60207
1341876253,6467,162.6199951171875000,5.0611000061035160,34.9786987304687500,361.3622131347656000,650.2221069335938000,5.0428681373596190,32.4019317626953100,16,3,50,119,62,2147638239,2147392634,2147281819,2148319666,1376,2,-4,61891
1341876316,6466,159.4400024414062500,5.0808000564575195,34.9795989990234400,360.9176025390625000,649.7362060546875000,5.0586609840393070,32.4074211120605500,16,3,50,113,63,2147638518,2147393302,2147285019,2148319281,1156,2,-6,17557
1341876377,6466,156.4199981689453000,5.0834999084472660,34.9805984497070300,360.7593078613281000,649.5925903320312000,5.0633301734924320,32.4098091125488300,16,3,50,115,62,2147633768,2147393618,2147282765,2148322417,857,2,-6,63117
1341876441,6468,153.2700042724609400,5.0989999771118160,34.9818992614746100,360.6117858886719000,649.1281738281250000,5.0784211158752440,32.4063911437988300,21,3,50,121,62,2147636991,2147393343,2147284131,2148319427,398,2,-6,41367
1341876502,6467,150.2799987792968800,5.1041998863220215,34.9827003479003900,360.4531860351562500,648.9860839843750000,5.0830359458923340,32.4088706970214840,14,3,50,138,62,2147635501,2147396795,2147281512,2148322728,118,2,-5,24126
1341876565,6468,147.1499938964843800,5.1048998832702640,34.9827003479003900,360.4523010253906000,648.9451293945312000,5.0843701362609860,32.4081306457519500,16,3,50,120,62,2147634857,2147392128,2147283002,2148320182,3447,2,-6,30115
1341876626,6467,144.1499938964843800,5.1152000427246090,34.9827995300293000,360.5094909667969000,648.6779785156250000,5.0930438041687010,32.4015693664550800,16,3,50,116,62,2147637951,2147393347,2147281709,2148323633,3103,2,-4,32778
1341876689,6467,141.1000061035156200,5.1370000839233400,34.9845008850097660,360.0816040039062500,648.0009765625000000,5.1150379180908200,32.4029808044433600,16,3,50,114,62,2147636086,2147390216,2147285650,2148320269,2888,2,-4,62299
1341876750,6469,138.2299957275390600,5.1449999809265140,34.9856986999511700,360.1715087890625000,647.7202148437500000,5.1241588592529300,32.3953094482421900,16,3,50,116,63,2147634445,2147391734,2147284973,2148319903,2613,2,-4,58504
1341876813,6469,135.2500000000000000,5.1567001342773440,34.9870986938476560,359.9545898437500000,647.3787841796875000,5.1352458000183105,32.3960113525390600,16,3,50,131,62,2147635332,2147392036,2147285824,2148321087,2364,2,-4,48359
1341876874,6467,132.4100036621093800,5.1599001884460450,34.9877014160156250,359.9719848632812500,647.2244873046875000,5.1402568817138670,32.3927803039550800,10,3,50,119,62,2147638134,2147393037,2147284653,2148322834,2213,2,-4,48807
1341876937,6466,129.4900054931640600,5.1684999465942380,34.9887008666992200,359.7824096679687500,646.9436035156250000,5.1493778228759770,32.3936691284179700,16,3,52,117,62,2147634148,2147393503,2147280959,2148320982,2137,2,-6,26237
1341876998,6467,126.6800003051757800,5.1985001564025880,34.9910011291503900,359.3414001464844000,646.1140136718750000,5.1763110160827640,32.3930702209472660,16,3,52,121,64,2147637577,2147396529,2147283529,2148319643,1898,2,-4,52549
1341877062,6465,123.7300033569336000,5.2073001861572270,34.9921989440918000,359.2744140625000000,645.7003784179688000,5.1897349357604980,32.3877410888671900,16,3,52,122,62,2147641114,2147395743,2147283715,2148319903,1550,2,-4,38260
1341877123,6467,120.9599990844726600,5.2276000976562500,34.9934005737304700,358.9942016601562500,645.2116088867188000,5.2055988311767580,32.3883094787597660,52,3,52,120,63,2147636352,2147393888,2147284617,2148322778,1377,2,-4,47024
1341877186,6468,118.0800018310546900,5.2301998138427730,34.9936981201171900,359.0606994628906000,645.0753173828125000,5.2100200653076170,32.3835983276367200,36,3,52,125,62,2147638294,2147395488,2147281805,2148321778,1182,2,-4,23520
1341877247,6469,115.3399963378906200,5.2319002151489260,34.9944992065429700,359.0549926757812500,645.0109252929688000,5.2121119499206540,32.3825302124023440,58,3,52,121,62,2147640264,2147392639,2147284982,2148319757,831,2,-4,43560
1341877310,6467,112.4499969482421900,5.2336997985839840,34.9945983886718750,359.1353149414062500,644.9459838867188000,5.2142181396484375,32.3789405822753900,43,3,52,120,62,2147635798,2147392516,2147282729,2148323844,541,2,-6,36644
1341877371,6467,109.6100006103515600,5.2385997772216800,34.9945983886718750,359.1459960937500000,644.8170166015625000,5.2184028625488280,32.3761596679687500,39,3,54,120,62,2147639295,2147392008,2147285869,2148319021,92,2,-6,54398
1341877434,6468,106.6399993896484400,5.2564001083374020,34.9957008361816400,358.9216918945312500,644.1920166015625000,5.2386798858642580,32.3722915649414060,46,3,54,131,62,2147638998,2147396077,2147286294,2148321416,3399,2,-6,61732
1341877495,6469,103.7500000000000000,5.2698001861572270,34.9962997436523440,358.7011108398437500,643.8593750000000000,5.2494678497314450,32.3738098144531250,37,3,56,124,62,2147637147,2147394481,2147286353,2148323185,2995,2,-5,59941
1341877558,6466,100.8399963378906200,5.2943000793457030,34.9987983703613300,358.6755981445312500,643.1571044921875000,5.2722449302673340,32.3619003295898440,42,3,54,125,62,2147640004,2147392740,2147286061,2148319107,2857,2,-4,45045
1341877619,6468,98.0800018310546900,5.3043999671936035,34.9998016357421900,358.7257995605469000,642.7974243164062000,5.2839112281799320,32.3537788391113300,48,3,54,123,62,2147637869,2147393650,2147288127,2148322403,2552,2,-4,21305
1341877683,6469,95.3000030517578100,5.3108000755310060,34.9995994567871100,358.7130126953125000,642.5881958007812000,5.2906928062438965,32.3506889343261700,302,3,56,128,60,2147634276,2147391442,2147283793,2148321389,2297,2,-6,18387
1341877744,6466,92.7099990844726600,5.3140001296997070,35.0003013610839840,358.6611938476562500,642.4821166992188000,5.2941341400146480,32.3503990173339840,96,3,55,124,62,2147635346,2147393288,2147287487,2148320978,2131,2,-4,36813
1341877807,6469,90.1200027465820300,5.3201999664306640,35.0004997253418000,358.5567932128906000,642.2968139648438000,5.3001418113708500,32.3503494262695300,63,3,56,135,62,2147636561,2147395469,2147287510,2148319889,1991,2,-5,28178
1341877868,6466,87.6800003051757800,5.3242001533508300,35.0010986328125000,358.4950866699219000,642.1647949218750000,5.3044199943542480,32.3500785827636700,52,3,56,124,62,2147635771,2147396210,2147287396,2148320754,1812,2,-4,11642
1341877931,6469,85.2300033569336000,5.3337998390197750,35.0009994506835940,358.4512939453125000,641.9033203125000000,5.3128991127014160,32.3470115661621100,42,3,57,124,62,2147638600,2147394884,2147288104,2148323058,1597,2,-4,44106
1341877992,6469,82.9100036621093800,5.3443999290466310,35.0014991760253900,358.2424926757812500,641.5571899414062000,5.3241162300109860,32.3475418090820300,49,3,60,139,62,2147637545,2147395830,2147286829,2148321435,1404,2,-6,6778
1341878083,6468,78.7699966430664000,5.3524999618530270,35.0003013610839840,358.1882934570312500,641.2993164062500000,5.3324742317199710,32.3445014953613300,63,3,64,136,62,2147634751,2147394271,2147285398,2148320364,983,2,-5,64810
1341878144,6468,75.1800003051757800,5.3715000152587890,34.9990997314453100,357.9161071777344000,640.6710815429688000,5.3528327941894530,32.3422012329101560,45,3,70,144,62,2147634627,2147397257,2147290212,2148319551,310,2,-6,26060
1341878207,6467,71.6600036621093800,5.3933000564575195,34.9976005554199200,357.9757995605469000,640.0941772460938000,5.3715229034423830,32.3298187255859400,43,3,82,145,62,2147635455,2147395117,2147290948,2148319908,3130,2,-4,8134
1341878268,6469,68.3499984741211000,5.4099001884460450,34.9972000122070300,358.0096130371094000,639.5604858398438000,5.3888092041015625,32.3195190429687500,71,3,111,150,62,2147635405,2147391615,2147290143,2148321325,2824,2,-6,47697
1341878332,6469,65.0199966430664000,5.4467000961303710,34.9990997314453100,358.0842895507812500,638.2858276367188000,5.4300918579101560,32.2945213317871100,39,3,101,166,62,2147633581,2147391844,2147288822,2148320836,2327,2,-6,13091
1341878393,6466,61.8300018310546900,5.5192999839782715,34.9990005493164060,358.1502075195312500,636.0598144531250000,5.5021381378173830,32.2531509399414060,41,3,96,145,62,2147637453,2147394957,2147290262,2148322006,2196,2,-6,12172
1341878456,6469,58.4700012207031250,5.5998997688293460,34.9981002807617200,359.1787109375000000,633.9141235351562000,5.5715351104736330,32.1822013854980500,60,3,102,170,61,2147635917,2147393993,2147291487,2148319707,1974,2,-6,14340
1341878517,6470,54.9599990844726560,5.6508002281188965,34.9973983764648440,359.7424011230469000,631.9829711914062000,5.6339511871337890,32.1302108764648440,61,3,118,163,62,2147636772,2147394175,2147290893,2148319003,1928,2,-6,49601
1341878580,6468,51.0900001525878900,5.7357001304626465,34.9953002929687500,361.6433105468750000,629.4868774414062000,5.7145729064941410,32.0260581970214840,63,3,173,203,62,2147635738,2147395409,2147295789,2148321571,1737,2,-6,38982
1341878641,6470,47.0999984741210940,5.8091001510620120,34.9949989318847660,363.9132995605469000,627.6475219726562000,5.7739391326904300,31.9222698211669920,31,3,237,235,62,2147637942,2147397476,2147296580,2148323286,910,2,-6,3650
1341878728,6469,42.1100006103515600,5.9348001480102540,34.9935989379882800,368.8028869628906000,623.8223266601562000,5.8972930908203125,31.7030506134033200,39,3,379,334,64,2147638138,2147400890,2147303588,2148325709,3151,2,-6,52446
1341878789,6470,39.7200012207031250,5.9601001739501950,34.9940986633300800,371.5390014648437500,622.6738891601562000,5.9342980384826660,31.5987300872802730,74,3,400,351,63,2147638655,2147402029,2147306714,2148325508,3034,2,-6,13761
1341878852,6471,37.3499984741210940,6.0005002021789550,34.9931983947753900,374.0681152343750000,621.3580932617188000,5.9766788482666020,31.4988307952880860,48,3,406,404,64,2147640918,2147403391,2147309709,2148328767,3095,2,-6,64502
1341878913,6469,35.1699981689453100,6.0837998390197750,34.9928016662597660,376.8685913085937500,618.9351806640625000,6.0546717643737790,31.3724403381347660,64,3,461,496,63,2147642061,2147406683,2147315702,2148327826,3564,2,-4,46693
1341879000,6470,31.6499996185302730,6.2632999420166020,34.9809989929199200,382.4118957519531000,613.1870117187500000,6.2394771575927730,31.1090297698974600,85,3,500,629,64,2147648744,2147414874,2147333448,2148333018,454,2,-6,43025
1341879061,6471,28.3899993896484380,6.4225001335144040,34.9894981384277340,388.4224853515625000,607.6713256835938000,6.4164958000183105,30.8398990631103500,99,3,498,745,64,2147660466,2147432607,2147355505,2148340826,812,2,-6,10169
1341879124,6472,25.0799999237060550,6.6939001083374020,34.9851989746093750,396.6850891113281000,600.7744750976562000,6.6374278068542480,30.4888496398925780,117,3,503,938,63,2147675104,2147456232,2147387784,2148350299,3132,2,-6,63851
1341879185,6471,22.2600002288818360,6.9765000343322750,34.9819984436035160,402.8099060058594000,592.0728149414062000,6.9155268669128420,30.1749591827392580,139,3,494,1135,64,2147704300,2147490001,2147429215,2148363890,2965,2,-4,18726
1341879248,6473,19.5799999237060550,7.1909999847412110,34.9823989868164060,407.4211120605469000,585.3063964843750000,7.1312870979309080,29.9388408660888670,140,3,485,1038,63,2147740177,2147527126,2147472817,2148379337,2542,2,-6,62827
1341879309,6470,17.0000000000000000,7.6957998275756840,34.9753990173339840,406.7092895507812500,567.7260131835938000,7.6899299621582030,29.6788597106933600,135,3,481,997,62,2147785092,2147571720,2147519364,2148397818,3019,0,-4,38771
1341879372,6470,15.0000000000000000,8.3923997879028320,34.9827995300293000,404.8421020507812500,545.1356201171875000,8.4038333892822270,29.3787002563476560,123,3,460,856,60,2147817005,2147605792,2147553960,2148409699,914,0,-5,42899
1341879445,6471,13.5900001525878900,8.7798995971679690,34.9836997985839840,403.4695129394531000,534.6948242187500000,8.7323608398437500,29.2568702697753900,112,3,461,773,61,2147839798,2147629572,2147575469,2148419830,1111,0,-6,18808
1341879525,6470,12.0200004577636720,9.0957002639770500,34.9772987365722660,399.6476135253906000,524.0974121093750000,9.0649375915527340,29.2013607025146500,125,3,427,801,61,2147875241,2147666984,2147605960,2148436575,1358,2,-3,41560
1341879598,6469,10.0200004577636720,9.9518003463745120,34.9837989807128900,388.9567871093750000,497.0551147460937500,9.9098091125488280,29.0968608856201170,99,3,421,712,60,2147921659,2147709380,2147648383,2148453892,3455,5,-4,47755
1341879678,6469,8.3299999237060550,10.8501996994018550,34.9813003540039060,375.0909118652344000,468.0195007324219000,10.8113403320312500,29.0724391937255860,87,3,399,615,58,2147956022,2147747131,2147675144,2148467821,734,-6,0,54166
1341879769,6469,6.2500000000000000,11.1398000717163090,34.9924011230468750,367.3866882324219000,457.5964965820312500,11.1336603164672850,29.1497592926025400,86,3,379,564,59,2147999295,2147785352,2147706555,2148489535,1153,0,-10,2846
1341879849,6470,3.5099999904632570,11.2945995330810550,34.9870986938476560,363.0880126953125000,452.9491882324219000,11.2771701812744140,29.2122306823730470,81,3,369,552,58,2148087579,2147870153,2147768095,2148548123,542,-16,0,27118
1341879896,6470,2.4300000667572020,0.0000000000000000,0.0000000000000000,362.5083923339844000,452.3547058105469000,11.2955198287963870,29.2211894989013670,84,3,367,557,58,2148111880,2147891739,2147783651,2148566184,1216,-8,5,61060
